• In Hungary
  • List of Countries
  • For 7 days
  • Water Temperature
  • Satellite Maps
  • Weather Map
  • News
  • Weather Widgets
  • user-avatar
    Login

    Hourly Weather Mongu

    Today, 18 August, Friday

    Time Temperature Precipitation Wind Pressure Humidity
    00:00 +19°C° 0 mm 2 mps 673 mmHg 20%
    01:00 +18°C° 0 mm 3 mps 673 mmHg 21%
    02:00 +18°C° 0 mm 3 mps 673 mmHg 23%
    03:00 +17°C° 0 mm 4 mps 673 mmHg 24%
    04:00 +15°C° 0 mm 4 mps 673 mmHg 25%
    05:00 +15°C° 0 mm 4 mps 673 mmHg 26%
    06:00 +15°C° 0 mm 5 mps 674 mmHg 26%
    07:00 +15°C° 0 mm 5 mps 674 mmHg 25%
    08:00 +15°C° 0 mm 5 mps 675 mmHg 24%
    09:00 +19°C° 0 mm 5 mps 675 mmHg 21%
    10:00 +22°C° 0 mm 4 mps 676 mmHg 17%
    11:00 +26°C° 0 mm 4 mps 676 mmHg 13%
    12:00 +28°C° 0 mm 4 mps 676 mmHg 12%
    13:00 +31°C° 0 mm 3 mps 675 mmHg 11%
    14:00 +34°C° 0 mm 3 mps 675 mmHg 10%
    15:00 +34°C° 0 mm 3 mps 675 mmHg 10%
    16:00 +34°C° 0 mm 3 mps 674 mmHg 10%
    17:00 +34°C° 0 mm 2 mps 674 mmHg 10%
    18:00 +29°C° 0 mm 3 mps 674 mmHg 12%
    19:00 +26°C° 0 mm 3 mps 673 mmHg 15%
    20:00 +22°C° 0 mm 3 mps 673 mmHg 18%
    21:00 +21°C° 0 mm 3 mps 674 mmHg 18%
    22:00 +20°C° 0 mm 3 mps 674 mmHg 19%
    23:00 +19°C° 0 mm 3 mps 674 mmHg 20%

    Tomorrow, 19 August, Saturday

    Time Temperature Precipitation Wind Pressure Humidity
    00:00 +18°C° 0 mm 3 mps 674 mmHg 20%
    01:00 +17°C° 0 mm 3 mps 674 mmHg 21%
    02:00 +16°C° 0 mm 3 mps 674 mmHg 21%
    03:00 +16°C° 0 mm 3 mps 674 mmHg 21%
    04:00 +14°C° 0 mm 3 mps 674 mmHg 21%
    05:00 +14°C° 0 mm 2 mps 674 mmHg 21%
    06:00 +14°C° 0 mm 3 mps 675 mmHg 21%
    07:00 +17°C° 0 mm 3 mps 675 mmHg 20%
    08:00 +18°C° 0 mm 3 mps 676 mmHg 19%
    09:00 +22°C° 0 mm 4 mps 676 mmHg 17%
    10:00 +27°C° 0 mm 4 mps 677 mmHg 15%
    11:00 +33°C° 0 mm 5 mps 678 mmHg 13%
    12:00 +34°C° 0 mm 4 mps 677 mmHg 12%
    13:00 +35°C° 0 mm 3 mps 676 mmHg 11%
    14:00 +37°C° 0 mm 3 mps 676 mmHg 10%
    15:00 +37°C° 0 mm 2 mps 675 mmHg 10%
    16:00 +36°C° 0 mm 2 mps 675 mmHg 10%
    17:00 +35°C° 0 mm 1 mps 675 mmHg 9%
    18:00 +32°C° 0 mm 2 mps 674 mmHg 12%
    19:00 +29°C° 0 mm 2 mps 674 mmHg 15%
    20:00 +25°C° 0 mm 2 mps 674 mmHg 17%
    21:00 +24°C° 0 mm 2 mps 674 mmHg 19%
    22:00 +23°C° 0 mm 2 mps 675 mmHg 21%
    23:00 +21°C° 0 mm 2 mps 675 mmHg 23%

    Day after tomorrow, 20 August, Sunday

    Time Temperature Precipitation Wind Pressure Humidity
    00:00 +20°C° 0 mm 3 mps 675 mmHg 26%
    01:00 +19°C° 0 mm 3 mps 675 mmHg 29%
    02:00 +19°C° 0 mm 3 mps 674 mmHg 33%
    03:00 +18°C° 0 mm 3 mps 674 mmHg 38%
    04:00 +18°C° 0 mm 3 mps 674 mmHg 43%
    05:00 +18°C° 0 mm 3 mps 674 mmHg 48%
    06:00 +19°C° 0 mm 3 mps 675 mmHg 48%
    07:00 +20°C° 0 mm 4 mps 676 mmHg 49%
    08:00 +22°C° 0 mm 4 mps 677 mmHg 49%
    09:00 +26°C° 0 mm 5 mps 677 mmHg 41%
    10:00 +29°C° 0 mm 5 mps 678 mmHg 34%
    11:00 +33°C° 0 mm 5 mps 679 mmHg 27%
    12:00 +34°C° 0 mm 4 mps 678 mmHg 23%
    13:00 +36°C° 0 mm 3 mps 677 mmHg 19%
    14:00 +37°C° 0 mm 3 mps 677 mmHg 15%
    15:00 +37°C° 0 mm 3 mps 676 mmHg 14%
    16:00 +36°C° 0 mm 3 mps 676 mmHg 14%
    17:00 +36°C° 0 mm 3 mps 675 mmHg 13%
    18:00 +33°C° 0 mm 3 mps 675 mmHg 16%
    19:00 +29°C° 0 mm 3 mps 675 mmHg 19%
    20:00 +26°C° 0 mm 2 mps 675 mmHg 22%
    21:00 +25°C° 0 mm 2 mps 675 mmHg 24%
    22:00 +24°C° 0 mm 3 mps 676 mmHg 26%
    23:00 +22°C° 0 mm 3 mps 676 mmHg 28%

    21 August, Monday

    Time Temperature Precipitation Wind Pressure Humidity
    00:00 +21°C° 0 mm 3 mps 676 mmHg 30%
    01:00 +20°C° 0 mm 3 mps 675 mmHg 32%
    02:00 +19°C° 0 mm 3 mps 675 mmHg 34%
    03:00 +19°C° 0 mm 3 mps 675 mmHg 37%
    04:00 +18°C° 0 mm 3 mps 675 mmHg 40%
    05:00 +17°C° 0 mm 3 mps 675 mmHg 43%
    06:00 +18°C° 0 mm 3 mps 675 mmHg 42%
    07:00 +19°C° 0 mm 4 mps 676 mmHg 41%
    08:00 +20°C° 0 mm 4 mps 677 mmHg 41%
    09:00 +25°C° 0 mm 4 mps 677 mmHg 33%
    10:00 +28°C° 0 mm 4 mps 678 mmHg 26%
    11:00 +33°C° 0 mm 4 mps 679 mmHg 18%
    12:00 +34°C° 0 mm 4 mps 678 mmHg 16%
    13:00 +35°C° 0 mm 4 mps 677 mmHg 14%
    14:00 +36°C° 0 mm 4 mps 676 mmHg 12%
    15:00 +36°C° 0 mm 4 mps 676 mmHg 12%
    16:00 +36°C° 0 mm 4 mps 675 mmHg 12%
    17:00 +35°C° 0 mm 4 mps 675 mmHg 12%
    18:00 +32°C° 0 mm 4 mps 675 mmHg 15%
    19:00 +28°C° 0 mm 3 mps 675 mmHg 19%
    20:00 +25°C° 0 mm 3 mps 675 mmHg 22%
    21:00 +24°C° 0 mm 3 mps 675 mmHg 24%
    22:00 +22°C° 0 mm 3 mps 675 mmHg 26%
    23:00 +21°C° 0 mm 3 mps 675 mmHg 28%

    22 August, Tuesday

    Time Temperature Precipitation Wind Pressure Humidity
    00:00 +20°C° 0 mm 2 mps 674 mmHg 30%
    01:00 +19°C° 0 mm 2 mps 674 mmHg 33%
    02:00 +18°C° 0 mm 2 mps 674 mmHg 35%
    03:00 +17°C° 0 mm 2 mps 673 mmHg 38%
    04:00 +17°C° 0 mm 2 mps 673 mmHg 41%
    05:00 +16°C° 0 mm 2 mps 673 mmHg 44%
    06:00 +17°C° 0 mm 2 mps 674 mmHg 42%
    07:00 +18°C° 0 mm 2 mps 675 mmHg 40%
    08:00 +20°C° 0 mm 2 mps 676 mmHg 38%
    09:00 +25°C° 0 mm 2 mps 676 mmHg 31%
    10:00 +28°C° 0 mm 2 mps 677 mmHg 24%
    11:00 +32°C° 0 mm 2 mps 677 mmHg 17%
    12:00 +35°C° 0 mm 2 mps 676 mmHg 15%
    13:00 +36°C° 0 mm 1 mps 676 mmHg 12%
    14:00 +39°C° 0 mm 1 mps 675 mmHg 10%
    15:00 +37°C° 0 mm 1 mps 674 mmHg 10%
    16:00 +36°C° 0 mm 1 mps 674 mmHg 10%
    17:00 +35°C° 0 mm 1 mps 673 mmHg 11%
    18:00 +31°C° 0 mm 1 mps 673 mmHg 13%
    19:00 +28°C° 0 mm 1 mps 673 mmHg 16%
    20:00 +25°C° 0 mm 1 mps 672 mmHg 19%
    21:00 +24°C° 0 mm 1 mps 672 mmHg 20%
    22:00 +23°C° 0 mm 1 mps 672 mmHg 21%
    23:00 +22°C° 0 mm 1 mps 672 mmHg 22%

    23 August, Wednesday

    Time Temperature Precipitation Wind Pressure Humidity
    00:00 +21°C° 0 mm 1 mps 672 mmHg 24%
    01:00 +21°C° 0 mm 1 mps 671 mmHg 25%
    02:00 +20°C° 0 mm 1 mps 671 mmHg 26%
    03:00 +19°C° 0 mm 1 mps 671 mmHg 27%
    04:00 +19°C° 0 mm 1 mps 671 mmHg 27%
    05:00 +18°C° 0 mm 1 mps 671 mmHg 28%
    06:00 +19°C° 0 mm 2 mps 672 mmHg 26%
    07:00 +20°C° 0 mm 2 mps 672 mmHg 24%
    08:00 +21°C° 0 mm 2 mps 673 mmHg 22%
    09:00 +26°C° 0 mm 2 mps 674 mmHg 18%
    10:00 +31°C° 0 mm 2 mps 675 mmHg 14%
    11:00 +36°C° 0 mm 2 mps 675 mmHg 10%
    12:00 +37°C° 0 mm 3 mps 675 mmHg 9%
    13:00 +37°C° 0 mm 3 mps 674 mmHg 8%
    14:00 +38°C° 0 mm 3 mps 673 mmHg 8%
    15:00 +37°C° 0 mm 3 mps 673 mmHg 8%
    16:00 +37°C° 0 mm 4 mps 672 mmHg 8%
    17:00 +36°C° 0 mm 4 mps 672 mmHg 8%
    18:00 +33°C° 0 mm 4 mps 672 mmHg 10%
    19:00 +29°C° 0 mm 3 mps 672 mmHg 13%
    20:00 +26°C° 0 mm 3 mps 672 mmHg 15%
    21:00 +25°C° 0 mm 3 mps 672 mmHg 16%
    22:00 +22°C° 0 mm 4 mps 672 mmHg 17%
    23:00 +21°C° 0 mm 4 mps 673 mmHg 17%
    Show more